| time (UTC) | temp F | wind direction | speed knots | gust knots | rain 1hr in | rain 24hr in | rain mn in | humidity % | barometer mb |
| 20260506114247 | 58 | 50 | 7.0 | 0.0 | 0.00 | 0.00 | 0.00 | 13 | 1012.0 |
| 20260506113245 | 58 | 50 | 7.0 | 0.0 | 0.00 | 0.00 | 0.00 | 13 | 1012.0 |
| 20260506111033 | 57 | 80 | 3.5 | 0.0 | 0.00 | 0.00 | 0.00 | 13 | 1013.0 |
| 20260506110031 | 57 | 80 | 3.5 | 0.0 | 0.00 | 0.00 | 0.00 | 13 | 1013.0 |
| 20260506105030 | 56 | 80 | 3.5 | 0.0 | 0.00 | 0.00 | 0.00 | 13 | 1013.0 |
| 20260506104029 | 55 | 90 | 3.5 | 0.0 | 0.00 | 0.00 | 0.00 | 13 | 1013.0 |
| 20260506103029 | 55 | 90 | 3.5 | 0.0 | 0.00 | 0.00 | 0.00 | 13 | 1013.0 |
| 20260506102027 | 55 | 90 | 3.5 | 0.0 | 0.00 | 0.00 | 0.00 | 13 | 1014.0 |
| 20260506101026 | 54 | 160 | 3.5 | 0.0 | 0.00 | 0.00 | 0.00 | 13 | 1014.0 |
| 20260506100025 | 54 | 160 | 3.5 | 0.0 | 0.00 | 0.00 | 0.00 | 13 | 1013.0 |
| 20260506093809 | 53 | 160 | 3.5 | 0.0 | 0.00 | 0.00 | 0.00 | 13 | 1013.0 |
| 20260506092808 | 52 | 160 | 3.5 | 0.0 | 0.00 | 0.00 | 0.00 | 14 | 1014.0 |
| 20260506091807 | 51 | 160 | 3.5 | 0.0 | 0.00 | 0.00 | 0.00 | 15 | 1014.0 |
| 20260506090806 | 50 | 160 | 3.5 | 0.0 | 0.00 | 0.00 | 0.00 | 16 | 1014.0 |
| 20260506085806 | 51 | 160 | 3.5 | 0.0 | 0.00 | 0.00 | 0.00 | 16 | 1014.0 |
| 20260506084805 | 50 | 160 | 3.5 | 0.0 | 0.00 | 0.00 | 0.00 | 16 | 1014.0 |
| 20260506083804 | 49 | 130 | 3.5 | 0.0 | 0.00 | 0.00 | 0.00 | 16 | 1014.0 |
| 20260506081551 | 50 | 130 | 3.5 | 0.0 | 0.00 | 0.00 | 0.00 | 16 | 1015.0 |
| 20260506080549 | 49 | 0 | 0.9 | 0.0 | 0.00 | 0.00 | 0.00 | 16 | 1015.0 |
| 20260506071336 | 38 | 0 | 0.0 | 0.0 | 0.00 | 0.00 | 0.00 | 93 | 1015.0 |
| 20260506070335 | 39 | 0 | 0.0 | 0.0 | 0.00 | 0.00 | 0.00 | 93 | 1015.0 |
| 20260506062121 | 39 | 330 | 2.6 | 0.0 | 0.00 | 0.00 | 0.00 | 10 | 1015.0 |
| 20260506061119 | 40 | 0 | 0.0 | 0.0 | 0.00 | 0.00 | 0.00 | 10 | 1015.0 |
| 20260506050901 | 38 | 0 | 0.0 | 0.0 | 0.00 | 0.00 | 0.00 | 93 | 1015.0 |
| 20260506044900 | 33 | 0 | 0.0 | 0.0 | 0.00 | 0.00 | 0.00 | 10 | 1015.0 |
| 20260506043859 | 34 | 0 | 0.0 | 0.0 | 0.00 | 0.00 | 0.00 | 10 | 1015.0 |
| 20260506040434 | 35 | 0 | 0.0 | 0.0 | 0.00 | 0.00 | 0.00 | 10 | 1015.0 |
| 20260506035432 | 36 | 0 | 0.0 | 0.0 | 0.00 | 0.00 | 0.00 | 10 | 1015.0 |
| 20260506034430 | 37 | 0 | 0.0 | 0.0 | 0.00 | 0.00 | 0.00 | 10 | 1015.0 |
| 20260506033429 | 38 | 0 | 0.0 | 0.0 | 0.00 | 0.00 | 0.00 | 10 | 1015.0 |
| 20260506032428 | 33 | 0 | 0.0 | 0.0 | 0.00 | 0.00 | 0.00 | 10 | 1015.0 |
| 20260506031428 | 34 | 0 | 0.0 | 0.0 | 0.00 | 0.00 | 0.00 | 10 | 1015.0 |
| 20260506030427 | 35 | 0 | 0.0 | 0.0 | 0.00 | 0.00 | 0.00 | 10 | 1015.0 |
| 20260506025426 | 36 | 0 | 0.0 | 0.0 | 0.00 | 0.00 | 0.00 | 10 | 1015.0 |
| 20260506023214 | 37 | 0 | 0.0 | 0.0 | 0.00 | 0.00 | 0.00 | 10 | 1015.0 |
| 20260506022214 | 38 | 0 | 0.0 | 0.0 | 0.00 | 0.00 | 0.00 | 10 | 1015.0 |
| 20260506021213 | 34 | 0 | 0.0 | 0.0 | 0.00 | 0.00 | 0.00 | 10 | 1016.0 |
| 20260506020210 | 35 | 0 | 0.0 | 0.0 | 0.00 | 0.00 | 0.00 | 10 | 1016.0 |
| 20260506015209 | 36 | 0 | 0.0 | 0.0 | 0.00 | 0.00 | 0.00 | 10 | 1016.0 |
| 20260506014207 | 37 | 0 | 0.0 | 0.0 | 0.00 | 0.00 | 0.00 | 10 | 1016.0 |
| 20260506013207 | 38 | 0 | 0.0 | 0.0 | 0.00 | 0.00 | 0.00 | 10 | 1016.0 |
| 20260506012206 | 39 | 0 | 0.0 | 0.0 | 0.00 | 0.00 | 0.00 | 10 | 1016.0 |
| 20260506005950 | 40 | 0 | 0.0 | 0.0 | 0.00 | 0.00 | 0.00 | 10 | 1016.0 |
| 20260506004949 | 34 | 270 | 3.5 | 0.0 | 0.00 | 0.00 | 0.00 | 93 | 1016.0 |
| 20260506003947 | 35 | 270 | 3.5 | 0.0 | 0.00 | 0.00 | 0.00 | 93 | 1016.0 |
| 20260506002946 | 36 | 270 | 3.5 | 0.0 | 0.00 | 0.00 | 0.00 | 93 | 1016.0 |
| 20260506001945 | 37 | 270 | 3.5 | 0.0 | 0.00 | 0.00 | 0.00 | 93 | 1016.0 |
| 20260506000943 | 38 | 270 | 3.5 | 0.0 | 0.00 | 0.00 | 0.00 | 93 | 1016.0 |
| 20260505235942 | 39 | 270 | 3.5 | 0.0 | 0.00 | 0.00 | 0.00 | 93 | 1016.0 |
| 20260505234941 | 40 | 270 | 3.5 | 0.0 | 0.00 | 0.00 | 0.00 | 93 | 1016.0 |
| 20260505232730 | 41 | 270 | 3.5 | 0.0 | 0.00 | 0.00 | 0.00 | 93 | 1016.0 |
| 20260505225305 | 42 | 270 | 3.5 | 0.0 | 0.00 | 0.00 | 0.00 | 93 | 1016.0 |
| 20260505224301 | 36 | 20 | 11.3 | 0.0 | 0.00 | 0.00 | 0.00 | 11 | 1016.0 |
| 20260505223300 | 37 | 20 | 11.3 | 0.0 | 0.00 | 0.00 | 0.00 | 11 | 1016.0 |
| 20260505222259 | 38 | 20 | 11.3 | 0.0 | 0.00 | 0.00 | 0.00 | 11 | 1016.0 |
| 20260505214836 | 39 | 20 | 11.3 | 0.0 | 0.00 | 0.00 | 0.00 | 11 | 1015.0 |
| 20260505212621 | 40 | 20 | 11.3 | 0.0 | 0.00 | 0.00 | 0.00 | 11 | 1015.0 |
| 20260505210405 | 41 | 20 | 11.3 | 0.0 | 0.00 | 0.00 | 0.00 | 11 | 1015.0 |
| 20260505205405 | 42 | 20 | 11.3 | 0.0 | 0.00 | 0.00 | 0.00 | 11 | 1015.0 |
| 20260505204403 | 43 | 20 | 11.3 | 0.0 | 0.00 | 0.00 | 0.00 | 11 | 1015.0 |
| 20260505203402 | 44 | 20 | 11.3 | 0.0 | 0.00 | 0.00 | 0.00 | 11 | 1015.0 |
| 20260505202400 | 45 | 20 | 11.3 | 0.0 | 0.00 | 0.00 | 0.00 | 11 | 1014.0 |
| 20260505201358 | 46 | 20 | 11.3 | 0.0 | 0.00 | 0.00 | 0.00 | 11 | 1014.0 |
| 20260505200357 | 47 | 20 | 9.6 | 0.0 | 0.00 | 0.00 | 0.00 | 11 | 1014.0 |
| 20260505195357 | 48 | 20 | 9.6 | 0.0 | 0.00 | 0.00 | 0.00 | 11 | 1014.0 |
| 20260505194356 | 49 | 20 | 9.6 | 0.0 | 0.00 | 0.00 | 0.00 | 11 | 1014.0 |
| 20260505192143 | 50 | 250 | 9.6 | 0.0 | 0.00 | 0.00 | 0.00 | 11 | 1013.0 |
| 20260505191142 | 51 | 250 | 9.6 | 0.0 | 0.00 | 0.00 | 0.00 | 11 | 1013.0 |
| 20260505190141 | 52 | 250 | 9.6 | 0.0 | 0.00 | 0.00 | 0.00 | 11 | 1013.0 |
| 20260505185140 | 53 | 250 | 9.6 | 0.0 | 0.00 | 0.00 | 0.00 | 11 | 1013.0 |
| 20260505184140 | 54 | 250 | 10.4 | 0.0 | 0.00 | 0.00 | 0.00 | 11 | 1013.0 |
| 20260505181925 | 55 | 250 | 10.4 | 0.0 | 0.00 | 0.00 | 0.00 | 11 | 1013.0 |
| 20260505180924 | 56 | 300 | 9.6 | 20.9 | 0.00 | 0.00 | 0.00 | 11 | 1013.0 |
| 20260505175924 | 57 | 300 | 9.6 | 20.9 | 0.00 | 0.00 | 0.00 | 11 | 1013.0 |
| 20260505172456 | 58 | 300 | 10.4 | 20.9 | 0.00 | 0.00 | 0.00 | 11 | 1013.0 |
| 20260505171454 | 57 | 300 | 10.4 | 20.9 | 0.00 | 0.00 | 0.00 | 11 | 1013.0 |
| 20260505170452 | 56 | 280 | 9.6 | 0.0 | 0.00 | 0.00 | 0.00 | 11 | 1013.0 |
| 20260505164240 | 57 | 280 | 9.6 | 0.0 | 0.00 | 0.00 | 0.00 | 11 | 1013.0 |
| 20260505163238 | 58 | 280 | 9.6 | 0.0 | 0.00 | 0.00 | 0.00 | 11 | 1013.0 |
| 20260505162237 | 59 | 280 | 9.6 | 0.0 | 0.00 | 0.00 | 0.00 | 11 | 1013.0 |
| 20260505161236 | 60 | 280 | 9.6 | 0.0 | 0.00 | 0.00 | 0.00 | 11 | 1013.0 |
| 20260505160236 | 61 | 280 | 9.6 | 0.0 | 0.00 | 0.00 | 0.00 | 11 | 1013.0 |
| 20260505150558 | 51 | 280 | 9.6 | 0.0 | 0.00 | 0.00 | 0.00 | 12 | 1013.0 |
| 20260505124121 | 57 | 280 | 7.0 | 0.0 | 0.00 | 0.00 | 0.00 | 12 | 1013.0 |
| 20260505121908 | 57 | 280 | 7.0 | 0.0 | 0.00 | 0.00 | 0.00 | 12 | 1014.0 |
| 20260505120906 | 56 | 260 | 7.0 | 0.0 | 0.00 | 0.00 | 0.00 | 12 | 1014.0 |
| 20260505115905 | 57 | 260 | 7.0 | 0.0 | 0.00 | 0.00 | 0.00 | 12 | 1014.0 |
| 20260505114904 | 56 | 280 | 4.3 | 0.0 | 0.00 | 0.00 | 0.00 | 12 | 1014.0 |